Time,TemperatureF,DewpointF,PressureIn,WindDirection,WindDirectionDegrees,WindSpeedMPH,WindSpeedGustMPH,Humidity,HourlyPrecipIn,Conditions,Clouds,dailyrainin,SoftwareType,DateUTC
2013-02-24 00:00:00,24.4,21.6,30.25,WNW,287,1.0,2.0,89,0.00,,---,0.00,VWS V13.00,2013-02-24 08:00:00,
2013-02-24 00:05:00,24.3,21.5,30.25,WNW,288,0.0,2.0,89,0.00,,---,0.00,VWS V13.00,2013-02-24 08:05:00,
2013-02-24 00:10:00,24.2,21.4,30.25,WNW,288,0.0,2.0,89,0.00,,---,0.00,VWS V13.00,2013-02-24 08:10:00,
2013-02-24 00:15:00,24.2,21.4,30.26,WNW,288,1.0,2.0,89,0.00,,---,0.00,VWS V13.00,2013-02-24 08:15:00,
2013-02-24 00:20:00,24.0,21.2,30.26,WNW,288,0.0,2.0,89,0.00,,---,0.00,VWS V13.00,2013-02-24 08:20:00,
2013-02-24 00:25:00,24.0,21.2,30.26,WNW,288,1.0,2.0,89,0.00,,---,0.00,VWS V13.00,2013-02-24 08:25:00,
2013-02-24 00:30:00,23.9,21.4,30.26,WNW,288,1.0,1.0,90,0.00,,---,0.00,VWS V13.00,2013-02-24 08:30:00,
2013-02-24 00:35:00,23.9,21.4,30.26,WNW,287,0.0,1.0,90,0.00,,---,0.00,VWS V13.00,2013-02-24 08:35:00,
2013-02-24 00:40:00,23.8,21.3,30.27,WNW,288,0.0,1.0,90,0.00,,---,0.00,VWS V13.00,2013-02-24 08:40:00,
2013-02-24 00:45:00,23.8,21.0,30.27,WNW,288,0.0,1.0,89,0.00,,---,0.00,VWS V13.00,2013-02-24 08:45:00,
2013-02-24 00:50:00,23.7,20.9,30.27,WNW,288,0.0,1.0,89,0.00,,---,0.00,VWS V13.00,2013-02-24 08:50:00,
2013-02-24 00:55:00,23.6,20.8,30.27,WNW,288,1.0,1.0,89,0.00,,---,0.00,VWS V13.00,2013-02-24 08:55:00,
2013-02-24 01:00:00,23.5,20.7,30.27,WNW,288,0.0,0.0,89,0.00,,---,0.00,VWS V13.00,2013-02-24 09:00:00,
2013-02-24 01:05:00,23.4,20.6,30.28,WNW,288,1.0,2.0,89,0.00,,---,0.00,VWS V13.00,2013-02-24 09:05:00,
2013-02-24 01:10:00,23.2,20.5,30.27,WNW,288,1.0,2.0,89,0.00,,---,0.00,VWS V13.00,2013-02-24 09:10:00,
2013-02-24 01:15:00,23.1,20.4,30.28,WNW,287,1.0,2.0,89,0.00,,---,0.00,VWS V13.00,2013-02-24 09:15:00,
2013-02-24 01:20:00,22.9,20.1,30.28,WNW,287,0.0,2.0,89,0.00,,---,0.00,VWS V13.00,2013-02-24 09:20:00,
2013-02-24 01:25:00,22.8,20.0,30.28,WNW,288,2.0,2.0,89,0.00,,---,0.00,VWS V13.00,2013-02-24 09:25:00,
2013-02-24 01:30:00,22.7,20.0,30.28,WNW,288,0.0,0.0,89,0.00,,---,0.00,VWS V13.00,2013-02-24 09:30:00,
2013-02-24 01:35:00,22.6,20.1,30.29,WNW,288,0.0,1.0,90,0.00,,---,0.00,VWS V13.00,2013-02-24 09:35:00,
2013-02-24 01:40:00,22.6,19.9,30.29,WNW,287,1.0,1.0,89,0.00,,---,0.00,VWS V13.00,2013-02-24 09:40:00,
2013-02-24 01:45:00,22.5,19.8,30.29,WNW,287,0.0,2.0,89,0.00,,---,0.00,VWS V13.00,2013-02-24 09:45:00,
2013-02-24 01:50:00,22.5,20.0,30.29,WNW,288,0.0,2.0,90,0.00,,---,0.00,VWS V13.00,2013-02-24 09:50:00,
2013-02-24 01:55:00,22.5,20.0,30.29,WNW,288,0.0,2.0,90,0.00,,---,0.00,VWS V13.00,2013-02-24 09:55:00,
2013-02-24 02:00:00,22.6,20.1,30.28,WNW,287,0.0,1.0,90,0.00,,---,0.00,VWS V13.00,2013-02-24 10:00:00,
2013-02-24 02:05:00,22.7,20.2,30.28,WNW,288,0.0,2.0,90,0.00,,---,0.00,VWS V13.00,2013-02-24 10:05:00,
2013-02-24 02:10:00,22.8,20.3,30.28,WNW,287,0.0,2.0,90,0.00,,---,0.00,VWS V13.00,2013-02-24 10:10:00,
2013-02-24 02:15:00,23.1,20.9,30.28,WNW,288,1.0,2.0,91,0.00,,---,0.00,VWS V13.00,2013-02-24 10:15:00,
2013-02-24 02:20:00,23.6,21.6,30.28,WNW,287,0.0,2.0,92,0.00,,---,0.00,VWS V13.00,2013-02-24 10:20:00,
2013-02-24 02:25:00,24.1,22.1,30.29,WNW,287,0.0,2.0,92,0.00,,---,0.00,VWS V13.00,2013-02-24 10:25:00,
2013-02-24 02:30:00,24.4,22.4,30.28,WNW,288,1.0,2.0,92,0.00,,---,0.00,VWS V13.00,2013-02-24 10:30:00,
2013-02-24 02:35:00,24.7,22.7,30.28,WNW,288,0.0,2.0,92,0.00,,---,0.00,VWS V13.00,2013-02-24 10:35:00,
2013-02-24 02:40:00,24.8,22.8,30.28,WNW,288,0.0,2.0,92,0.00,,---,0.00,VWS V13.00,2013-02-24 10:40:00,
2013-02-24 02:45:00,24.8,22.8,30.28,WNW,287,0.0,2.0,92,0.00,,---,0.00,VWS V13.00,2013-02-24 10:45:00,
2013-02-24 02:50:00,24.8,22.8,30.28,WNW,287,0.0,2.0,92,0.00,,---,0.00,VWS V13.00,2013-02-24 10:50:00,
2013-02-24 02:55:00,24.7,22.7,30.29,WNW,288,0.0,2.0,92,0.00,,---,0.00,VWS V13.00,2013-02-24 10:55:00,
2013-02-24 03:00:00,24.6,22.6,30.28,WNW,288,1.0,2.0,92,0.00,,---,0.00,VWS V13.00,2013-02-24 11:00:00,
2013-02-24 03:05:00,24.4,22.4,30.29,WNW,288,0.0,2.0,92,0.00,,---,0.00,VWS V13.00,2013-02-24 11:05:00,
2013-02-24 03:10:00,24.3,22.3,30.28,WNW,288,0.0,2.0,92,0.00,,---,0.00,VWS V13.00,2013-02-24 11:10:00,
2013-02-24 03:15:00,24.2,22.2,30.29,WNW,287,0.0,2.0,92,0.00,,---,0.00,VWS V13.00,2013-02-24 11:15:00,
2013-02-24 03:20:00,24.1,22.1,30.29,WNW,288,0.0,2.0,92,0.00,,---,0.00,VWS V13.00,2013-02-24 11:20:00,
2013-02-24 03:25:00,24.0,22.0,30.29,WNW,288,0.0,2.0,92,0.00,,---,0.00,VWS V13.00,2013-02-24 11:25:00,
2013-02-24 03:29:00,23.9,21.9,30.29,WNW,288,0.0,0.0,92,0.00,,---,0.00,VWS V13.00,2013-02-24 11:29:00,
2013-02-24 03:34:00,23.9,21.9,30.29,WNW,288,0.0,0.0,92,0.00,,---,0.00,VWS V13.00,2013-02-24 11:34:00,
2013-02-24 03:39:00,23.8,21.8,30.30,WNW,288,0.0,0.0,92,0.00,,---,0.00,VWS V13.00,2013-02-24 11:39:00,
2013-02-24 03:44:00,23.6,21.6,30.30,WNW,288,0.0,0.0,92,0.00,,---,0.00,VWS V13.00,2013-02-24 11:44:00,
2013-02-24 03:49:00,23.5,21.5,30.30,WNW,288,0.0,0.0,92,0.00,,---,0.00,VWS V13.00,2013-02-24 11:49:00,
2013-02-24 03:54:00,23.4,21.2,30.30,WNW,287,0.0,0.0,91,0.00,,---,0.00,VWS V13.00,2013-02-24 11:54:00,
2013-02-24 03:59:00,23.2,21.0,30.31,WNW,287,0.0,0.0,91,0.00,,---,0.00,VWS V13.00,2013-02-24 11:59:00,
2013-02-24 04:04:00,23.0,20.8,30.31,WNW,288,0.0,0.0,91,0.00,,---,0.00,VWS V13.00,2013-02-24 12:04:00,
2013-02-24 04:09:00,22.9,20.7,30.31,WNW,288,0.0,0.0,91,0.00,,---,0.00,VWS V13.00,2013-02-24 12:09:00,
2013-02-24 04:14:00,22.8,20.6,30.31,WNW,288,0.0,0.0,91,0.00,,---,0.00,VWS V13.00,2013-02-24 12:14:00,
2013-02-24 04:19:00,22.7,20.5,30.31,WNW,287,0.0,0.0,91,0.00,,---,0.00,VWS V13.00,2013-02-24 12:19:00,
2013-02-24 04:24:00,22.5,20.3,30.31,WNW,287,0.0,0.0,91,0.00,,---,0.00,VWS V13.00,2013-02-24 12:24:00,
2013-02-24 04:29:00,22.4,20.2,30.32,WNW,288,0.0,0.0,91,0.00,,---,0.00,VWS V13.00,2013-02-24 12:29:00,
2013-02-24 04:34:00,22.4,20.2,30.32,WNW,288,0.0,1.0,91,0.00,,---,0.00,VWS V13.00,2013-02-24 12:34:00,
2013-02-24 04:39:00,22.3,20.1,30.32,WNW,288,0.0,1.0,91,0.00,,---,0.00,VWS V13.00,2013-02-24 12:39:00,
2013-02-24 04:44:00,22.5,20.5,30.32,WNW,287,0.0,1.0,92,0.00,,---,0.00,VWS V13.00,2013-02-24 12:44:00,
2013-02-24 04:49:00,22.6,20.6,30.32,WNW,288,0.0,1.0,92,0.00,,---,0.00,VWS V13.00,2013-02-24 12:49:00,
2013-02-24 04:54:00,22.7,20.7,30.32,WNW,288,0.0,1.0,92,0.00,,---,0.00,VWS V13.00,2013-02-24 12:54:00,
2013-02-24 04:59:00,23.1,21.1,30.32,WNW,288,0.0,0.0,92,0.00,,---,0.00,VWS V13.00,2013-02-24 12:59:00,
2013-02-24 05:04:00,23.6,21.6,30.32,WNW,288,1.0,2.0,92,0.00,,---,0.00,VWS V13.00,2013-02-24 13:04:00,
2013-02-24 05:09:00,23.9,22.2,30.32,WNW,287,0.0,2.0,93,0.00,,---,0.00,VWS V13.00,2013-02-24 13:09:00,
2013-02-24 05:14:00,24.2,22.5,30.32,WNW,288,0.0,2.0,93,0.00,,---,0.00,VWS V13.00,2013-02-24 13:14:00,
2013-02-24 05:19:00,24.3,22.6,30.32,WNW,288,0.0,2.0,93,0.00,,---,0.00,VWS V13.00,2013-02-24 13:19:00,
2013-02-24 05:24:00,24.4,22.7,30.32,WNW,287,1.0,2.0,93,0.00,,---,0.00,VWS V13.00,2013-02-24 13:24:00,
2013-02-24 05:29:00,24.5,22.8,30.32,WNW,287,0.0,0.0,93,0.00,,---,0.00,VWS V13.00,2013-02-24 13:29:00,
2013-02-24 05:34:00,24.5,22.5,30.32,WNW,288,0.0,0.0,92,0.00,,---,0.00,VWS V13.00,2013-02-24 13:34:00,
2013-02-24 05:39:00,24.5,22.5,30.32,WNW,288,0.0,0.0,92,0.00,,---,0.00,VWS V13.00,2013-02-24 13:39:00,
2013-02-24 05:44:00,24.5,22.5,30.32,WNW,288,0.0,0.0,92,0.00,,---,0.00,VWS V13.00,2013-02-24 13:44:00,
2013-02-24 05:49:00,24.5,22.5,30.33,WNW,287,0.0,0.0,92,0.00,,---,0.00,VWS V13.00,2013-02-24 13:49:00,
2013-02-24 05:54:00,24.4,22.4,30.33,WNW,288,0.0,0.0,92,0.00,,---,0.00,VWS V13.00,2013-02-24 13:54:00,
2013-02-24 05:59:00,24.3,22.3,30.34,WNW,288,0.0,0.0,92,0.00,,---,0.00,VWS V13.00,2013-02-24 13:59:00,
2013-02-24 06:04:00,24.2,22.2,30.34,WNW,287,0.0,0.0,92,0.00,,---,0.00,VWS V13.00,2013-02-24 14:04:00,
2013-02-24 06:09:00,24.1,22.1,30.34,WNW,288,0.0,0.0,92,0.00,,---,0.00,VWS V13.00,2013-02-24 14:09:00,
2013-02-24 06:14:00,24.0,22.0,30.34,WNW,288,0.0,0.0,92,0.00,,---,0.00,VWS V13.00,2013-02-24 14:14:00,
2013-02-24 06:19:00,23.9,21.9,30.34,WNW,288,0.0,0.0,92,0.00,,---,0.00,VWS V13.00,2013-02-24 14:19:00,
2013-02-24 06:24:00,23.9,21.9,30.34,WNW,288,0.0,0.0,92,0.00,,---,0.00,VWS V13.00,2013-02-24 14:24:00,
2013-02-24 06:29:00,23.9,21.9,30.34,WNW,287,0.0,0.0,92,0.00,,---,0.00,VWS V13.00,2013-02-24 14:29:00,
2013-02-24 06:34:00,23.9,21.9,30.33,WNW,288,0.0,1.0,92,0.00,,---,0.00,VWS V13.00,2013-02-24 14:34:00,
2013-02-24 06:39:00,24.0,22.3,30.34,WNW,288,0.0,1.0,93,0.00,,---,0.00,VWS V13.00,2013-02-24 14:39:00,
2013-02-24 06:44:00,24.1,22.4,30.34,WNW,288,0.0,1.0,93,0.00,,---,0.00,VWS V13.00,2013-02-24 14:44:00,
2013-02-24 06:49:00,24.1,22.4,30.34,WNW,288,0.0,2.0,93,0.00,,---,0.00,VWS V13.00,2013-02-24 14:49:00,
2013-02-24 06:54:00,24.1,22.4,30.34,WNW,287,0.0,2.0,93,0.00,,---,0.00,VWS V13.00,2013-02-24 14:54:00,
2013-02-24 06:59:00,24.2,22.2,30.35,WNW,288,0.0,0.0,92,0.00,,---,0.00,VWS V13.00,2013-02-24 14:59:00,
2013-02-24 07:04:00,24.2,22.2,30.35,WNW,288,0.0,0.0,92,0.00,,---,0.00,VWS V13.00,2013-02-24 15:04:00,
2013-02-24 07:09:00,24.2,22.2,30.36,WNW,288,0.0,1.0,92,0.00,,---,0.00,VWS V13.00,2013-02-24 15:09:00,
2013-02-24 07:14:00,24.2,22.2,30.36,WNW,287,0.0,1.0,92,0.00,,---,0.00,VWS V13.00,2013-02-24 15:14:00,
2013-02-24 07:19:00,24.3,22.6,30.36,WNW,288,0.0,1.0,93,0.00,,---,0.00,VWS V13.00,2013-02-24 15:19:00,
2013-02-24 07:24:00,24.4,22.7,30.36,South,171,2.0,2.0,93,0.00,,---,0.00,VWS V13.00,2013-02-24 15:24:00,
2013-02-24 07:29:00,24.5,22.8,30.36,South,171,0.0,0.0,93,0.00,,---,0.00,VWS V13.00,2013-02-24 15:29:00,
2013-02-24 07:34:00,24.8,23.1,30.37,South,171,0.0,0.0,93,0.00,,---,0.00,VWS V13.00,2013-02-24 15:34:00,
2013-02-24 07:39:00,25.0,23.3,30.37,South,171,0.0,2.0,93,0.00,,---,0.00,VWS V13.00,2013-02-24 15:39:00,
2013-02-24 07:44:00,25.4,23.7,30.37,South,171,0.0,2.0,93,0.00,,---,0.00,VWS V13.00,2013-02-24 15:44:00,
2013-02-24 07:49:00,25.8,24.1,30.36,South,171,2.0,3.0,93,0.00,,---,0.00,VWS V13.00,2013-02-24 15:49:00,
2013-02-24 07:54:00,26.2,24.5,30.36,SSE,162,3.0,3.0,93,0.00,,---,0.00,VWS V13.00,2013-02-24 15:54:00,
2013-02-24 07:59:00,26.6,24.9,30.37,SSE,150,2.0,2.0,93,0.00,,---,0.00,VWS V13.00,2013-02-24 15:59:00,
2013-02-24 08:04:00,27.0,25.2,30.36,SSE,150,0.0,5.0,93,0.00,,---,0.00,VWS V13.00,2013-02-24 16:04:00,
2013-02-24 08:09:00,27.4,25.6,30.36,ESE,110,1.0,5.0,93,0.00,,---,0.00,VWS V13.00,2013-02-24 16:09:00,
2013-02-24 08:14:00,27.6,25.8,30.36,ESE,111,2.0,5.0,93,0.00,,---,0.00,VWS V13.00,2013-02-24 16:14:00,
2013-02-24 08:19:00,27.8,26.0,30.36,ESE,111,0.0,5.0,93,0.00,,---,0.00,VWS V13.00,2013-02-24 16:19:00,
2013-02-24 08:24:00,28.1,26.3,30.36,ESE,123,3.0,5.0,93,0.00,,---,0.00,VWS V13.00,2013-02-24 16:24:00,
2013-02-24 08:29:00,28.4,26.6,30.37,ESE,123,4.0,4.0,93,0.00,,---,0.00,VWS V13.00,2013-02-24 16:29:00,
2013-02-24 08:34:00,28.6,26.6,30.37,SE,134,1.0,8.0,92,0.00,,---,0.00,VWS V13.00,2013-02-24 16:34:00,
2013-02-24 08:39:00,28.8,26.8,30.37,SE,132,4.0,8.0,92,0.00,,---,0.00,VWS V13.00,2013-02-24 16:39:00,
2013-02-24 08:44:00,29.0,26.7,30.37,SE,132,1.0,8.0,91,0.00,,---,0.00,VWS V13.00,2013-02-24 16:44:00,
2013-02-24 08:49:00,29.3,26.7,30.37,ESE,115,1.0,8.0,90,0.00,,---,0.00,VWS V13.00,2013-02-24 16:49:00,
2013-02-24 08:54:00,29.5,26.9,30.37,ESE,107,2.0,8.0,90,0.00,,---,0.00,VWS V13.00,2013-02-24 16:54:00,
2013-02-24 08:59:00,29.7,27.1,30.37,East,101,2.0,5.0,90,0.00,,---,0.00,VWS V13.00,2013-02-24 16:59:00,
2013-02-24 09:04:00,29.9,27.1,30.38,SE,140,2.0,5.0,89,0.00,,---,0.00,VWS V13.00,2013-02-24 17:04:00,
2013-02-24 09:09:00,30.2,27.4,30.38,SSE,159,2.0,5.0,89,0.00,,---,0.00,VWS V13.00,2013-02-24 17:09:00,
2013-02-24 09:14:00,30.6,27.5,30.37,SSE,157,1.0,5.0,88,0.00,,---,0.00,VWS V13.00,2013-02-24 17:14:00,
2013-02-24 09:19:00,30.9,27.8,30.37,SSE,158,2.0,5.0,88,0.00,,---,0.00,VWS V13.00,2013-02-24 17:19:00,
2013-02-24 09:24:00,31.3,27.9,30.37,SSE,155,2.0,5.0,87,0.00,,---,0.00,VWS V13.00,2013-02-24 17:24:00,
2013-02-24 09:29:00,31.6,27.9,30.37,SE,145,2.0,2.0,86,0.00,,---,0.00,VWS V13.00,2013-02-24 17:29:00,
2013-02-24 09:34:00,31.7,27.7,30.38,East,96,4.0,5.0,85,0.00,,---,0.00,VWS V13.00,2013-02-24 17:34:00,
2013-02-24 09:39:00,32.0,27.7,30.37,SE,131,2.0,6.0,84,0.00,,---,0.00,VWS V13.00,2013-02-24 17:39:00,
2013-02-24 09:44:00,32.1,27.5,30.36,ESE,120,1.0,6.0,83,0.00,,---,0.00,VWS V13.00,2013-02-24 17:44:00,
2013-02-24 09:49:00,32.4,27.8,30.36,ESE,121,6.0,7.0,83,0.00,,---,0.00,VWS V13.00,2013-02-24 17:49:00,
2013-02-24 09:54:00,32.6,28.0,30.36,SE,133,4.0,7.0,83,0.00,,---,0.00,VWS V13.00,2013-02-24 17:54:00,
2013-02-24 09:59:00,32.8,27.9,30.36,SE,124,1.0,3.0,82,0.00,,---,0.00,VWS V13.00,2013-02-24 17:59:00,
2013-02-24 10:04:00,32.9,28.0,30.36,SE,141,1.0,6.0,82,0.00,,---,0.00,VWS V13.00,2013-02-24 18:04:00,
2013-02-24 10:09:00,33.1,27.9,30.37,SSE,155,3.0,6.0,81,0.00,,---,0.00,VWS V13.00,2013-02-24 18:09:00,
2013-02-24 10:14:00,33.4,28.2,30.36,South,176,2.0,6.0,81,0.00,,---,0.00,VWS V13.00,2013-02-24 18:14:00,
2013-02-24 10:19:00,33.5,28.0,30.36,SSE,161,2.0,10.0,80,0.00,,---,0.00,VWS V13.00,2013-02-24 18:19:00,
2013-02-24 10:24:00,33.7,28.2,30.36,South,172,1.0,10.0,80,0.00,,---,0.00,VWS V13.00,2013-02-24 18:24:00,
2013-02-24 10:29:00,33.8,28.3,30.36,South,173,2.0,4.0,80,0.00,,---,0.00,VWS V13.00,2013-02-24 18:29:00,
2013-02-24 10:34:00,34.1,28.6,30.36,South,172,1.0,4.0,80,0.00,,---,0.00,VWS V13.00,2013-02-24 18:34:00,
2013-02-24 10:39:00,34.4,29.2,30.36,South,173,1.0,4.0,81,0.00,,---,0.00,VWS V13.00,2013-02-24 18:39:00,
2013-02-24 10:44:00,34.5,29.0,30.36,South,171,4.0,5.0,80,0.00,,---,0.00,VWS V13.00,2013-02-24 18:44:00,
2013-02-24 10:49:00,34.8,28.6,30.36,SSW,192,3.0,7.0,78,0.00,,---,0.00,VWS V13.00,2013-02-24 18:49:00,
2013-02-24 10:54:00,35.0,28.5,30.36,South,173,0.0,7.0,77,0.00,,---,0.00,VWS V13.00,2013-02-24 18:54:00,
2013-02-24 10:59:00,35.3,28.8,30.37,South,171,1.0,3.0,77,0.00,,---,0.00,VWS V13.00,2013-02-24 18:59:00,
2013-02-24 11:04:00,35.5,29.0,30.36,SSE,155,4.0,4.0,77,0.00,,---,0.00,VWS V13.00,2013-02-24 19:04:00,
2013-02-24 11:09:00,35.7,28.9,30.36,SE,142,3.0,6.0,76,0.00,,---,0.00,VWS V13.00,2013-02-24 19:09:00,
2013-02-24 11:14:00,35.9,28.8,30.36,SSE,151,4.0,7.0,75,0.00,,---,0.00,VWS V13.00,2013-02-24 19:14:00,
2013-02-24 11:19:00,36.0,28.5,30.36,SE,127,4.0,9.0,74,0.00,,---,0.00,VWS V13.00,2013-02-24 19:19:00,
2013-02-24 11:24:00,36.2,28.7,30.37,SE,126,3.0,10.0,74,0.00,,---,0.00,VWS V13.00,2013-02-24 19:24:00,
2013-02-24 11:29:00,36.2,28.7,30.36,SSW,194,7.0,7.0,74,0.00,,---,0.00,VWS V13.00,2013-02-24 19:29:00,
2013-02-24 11:34:00,36.2,28.7,30.36,South,169,2.0,9.0,74,0.00,,---,0.00,VWS V13.00,2013-02-24 19:34:00,
2013-02-24 11:39:00,36.4,28.9,30.36,ESE,106,2.0,9.0,74,0.00,,---,0.00,VWS V13.00,2013-02-24 19:39:00,
2013-02-24 11:44:00,36.7,28.9,30.36,SE,144,11.0,11.0,73,0.00,,---,0.00,VWS V13.00,2013-02-24 19:44:00,
2013-02-24 11:49:00,36.8,29.0,30.36,SSE,163,6.0,11.0,73,0.00,,---,0.00,VWS V13.00,2013-02-24 19:49:00,
2013-02-24 11:54:00,37.1,28.9,30.35,SSE,158,4.0,12.0,72,0.00,,---,0.00,VWS V13.00,2013-02-24 19:54:00,
2013-02-24 11:59:00,37.7,29.8,30.34,SSE,152,4.0,4.0,73,0.00,,---,0.00,VWS V13.00,2013-02-24 19:59:00,
2013-02-24 12:04:00,38.1,29.2,30.34,SSE,161,4.0,13.0,70,0.00,,---,0.00,VWS V13.00,2013-02-24 20:04:00,
2013-02-24 12:09:00,38.1,28.8,30.34,SSE,148,7.0,13.0,69,0.00,,---,0.00,VWS V13.00,2013-02-24 20:09:00,
2013-02-24 12:14:00,38.1,29.2,30.34,South,183,3.0,13.0,70,0.00,,---,0.00,VWS V13.00,2013-02-24 20:14:00,
2013-02-24 12:19:00,38.2,28.9,30.34,South,187,4.0,13.0,69,0.00,,---,0.00,VWS V13.00,2013-02-24 20:19:00,
2013-02-24 12:24:00,38.2,29.3,30.34,South,169,5.0,13.0,70,0.00,,---,0.00,VWS V13.00,2013-02-24 20:24:00,
2013-02-24 12:29:00,38.2,28.9,30.33,ESE,120,3.0,5.0,69,0.00,,---,0.00,VWS V13.00,2013-02-24 20:29:00,
2013-02-24 12:34:00,38.2,28.9,30.33,ESE,114,3.0,11.0,69,0.00,,---,0.00,VWS V13.00,2013-02-24 20:34:00,
2013-02-24 12:39:00,38.2,28.9,30.33,SSE,165,5.0,12.0,69,0.00,,---,0.00,VWS V13.00,2013-02-24 20:39:00,
2013-02-24 12:44:00,38.3,29.0,30.33,ESE,115,1.0,13.0,69,0.00,,---,0.00,VWS V13.00,2013-02-24 20:44:00,
2013-02-24 12:49:00,38.4,29.1,30.33,SSE,153,3.0,13.0,69,0.00,,---,0.00,VWS V13.00,2013-02-24 20:49:00,
2013-02-24 12:54:00,38.5,29.2,30.33,South,171,4.0,13.0,69,0.00,,---,0.00,VWS V13.00,2013-02-24 20:54:00,
2013-02-24 12:59:00,38.6,29.3,30.33,South,178,0.0,2.0,69,0.00,,---,0.00,VWS V13.00,2013-02-24 20:59:00,
2013-02-24 13:04:00,38.8,29.5,30.32,ESE,110,6.0,9.0,69,0.00,,---,0.00,VWS V13.00,2013-02-24 21:04:00,
2013-02-24 13:09:00,38.9,29.2,30.32,ESE,107,3.0,11.0,68,0.00,,---,0.00,VWS V13.00,2013-02-24 21:09:00,
2013-02-24 13:14:00,39.1,29.8,30.32,SSE,167,1.0,11.0,69,0.00,,---,0.00,VWS V13.00,2013-02-24 21:14:00,
2013-02-24 13:19:00,39.6,29.6,30.32,South,179,9.0,11.0,67,0.00,,---,0.00,VWS V13.00,2013-02-24 21:19:00,
2013-02-24 13:24:00,39.8,29.4,30.31,SSE,165,6.0,11.0,66,0.00,,---,0.00,VWS V13.00,2013-02-24 21:24:00,
2013-02-24 13:29:00,39.9,28.7,30.31,SSE,155,2.0,4.0,64,0.00,,---,0.00,VWS V13.00,2013-02-24 21:29:00,
2013-02-24 13:34:00,39.8,29.0,30.31,South,171,4.0,9.0,65,0.00,,---,0.00,VWS V13.00,2013-02-24 21:34:00,
2013-02-24 13:39:00,39.8,29.0,30.31,SE,140,3.0,9.0,65,0.00,,---,0.00,VWS V13.00,2013-02-24 21:39:00,
2013-02-24 13:44:00,39.7,28.5,30.31,SSE,161,7.0,14.0,64,0.00,,---,0.00,VWS V13.00,2013-02-24 21:44:00,
2013-02-24 13:49:00,39.6,28.4,30.31,SE,127,5.0,14.0,64,0.00,,---,0.00,VWS V13.00,2013-02-24 21:49:00,
2013-02-24 13:54:00,39.5,28.0,30.31,SSE,152,6.0,14.0,63,0.00,,---,0.00,VWS V13.00,2013-02-24 21:54:00,
2013-02-24 13:59:00,39.4,28.2,30.30,SSE,156,7.0,7.0,64,0.00,,---,0.00,VWS V13.00,2013-02-24 21:59:00,
2013-02-24 14:04:00,39.4,28.2,30.30,South,169,2.0,12.0,64,0.00,,---,0.00,VWS V13.00,2013-02-24 22:04:00,
2013-02-24 14:09:00,39.5,28.0,30.30,SE,126,4.0,12.0,63,0.00,,---,0.00,VWS V13.00,2013-02-24 22:09:00,
2013-02-24 14:14:00,39.5,28.0,30.30,SSE,161,3.0,12.0,63,0.00,,---,0.00,VWS V13.00,2013-02-24 22:14:00,
2013-02-24 14:19:00,39.6,28.4,30.30,SSE,165,2.0,12.0,64,0.00,,---,0.00,VWS V13.00,2013-02-24 22:19:00,
2013-02-24 14:24:00,39.6,28.4,30.30,SSE,153,4.0,12.0,64,0.00,,---,0.00,VWS V13.00,2013-02-24 22:24:00,
2013-02-24 14:29:00,39.6,28.1,30.30,ESE,103,1.0,5.0,63,0.00,,---,0.00,VWS V13.00,2013-02-24 22:29:00,
2013-02-24 14:34:00,39.5,28.0,30.29,SE,124,2.0,11.0,63,0.00,,---,0.00,VWS V13.00,2013-02-24 22:34:00,
2013-02-24 14:39:00,39.6,28.4,30.29,SE,141,7.0,11.0,64,0.00,,---,0.00,VWS V13.00,2013-02-24 22:39:00,
2013-02-24 14:44:00,39.8,28.6,30.29,South,171,7.0,11.0,64,0.00,,---,0.00,VWS V13.00,2013-02-24 22:44:00,
2013-02-24 14:49:00,40.0,28.8,30.28,SSE,158,6.0,11.0,64,0.00,,---,0.00,VWS V13.00,2013-02-24 22:49:00,
2013-02-24 14:54:00,40.0,28.8,30.28,South,182,3.0,11.0,64,0.00,,---,0.00,VWS V13.00,2013-02-24 22:54:00,
2013-02-24 14:59:00,40.1,28.9,30.29,South,190,2.0,6.0,64,0.00,,---,0.00,VWS V13.00,2013-02-24 22:59:00,
2013-02-24 15:04:00,40.2,28.6,30.29,SE,132,3.0,10.0,63,0.00,,---,0.00,VWS V13.00,2013-02-24 23:04:00,
2013-02-24 15:09:00,40.3,28.7,30.29,ESE,115,4.0,10.0,63,0.00,,---,0.00,VWS V13.00,2013-02-24 23:09:00,
2013-02-24 15:14:00,40.4,28.4,30.29,SE,128,3.0,10.0,62,0.00,,---,0.00,VWS V13.00,2013-02-24 23:14:00,
2013-02-24 15:19:00,40.3,28.3,30.29,SE,136,3.0,10.0,62,0.00,,---,0.00,VWS V13.00,2013-02-24 23:19:00,
2013-02-24 15:24:00,40.2,28.2,30.29,ESE,114,4.0,10.0,62,0.00,,---,0.00,VWS V13.00,2013-02-24 23:24:00,
2013-02-24 15:29:00,40.0,28.4,30.29,South,180,3.0,4.0,63,0.00,,---,0.00,VWS V13.00,2013-02-24 23:29:00,
2013-02-24 15:34:00,39.9,28.3,30.29,SE,143,6.0,10.0,63,0.00,,---,0.00,VWS V13.00,2013-02-24 23:34:00,
2013-02-24 15:39:00,39.7,27.8,30.29,SE,141,4.0,11.0,62,0.00,,---,0.00,VWS V13.00,2013-02-24 23:39:00,
2013-02-24 15:44:00,39.6,27.7,30.29,SSE,157,2.0,11.0,62,0.00,,---,0.00,VWS V13.00,2013-02-24 23:44:00,
2013-02-24 15:49:00,39.5,28.0,30.29,SSE,160,4.0,11.0,63,0.00,,---,0.00,VWS V13.00,2013-02-24 23:49:00,
2013-02-24 15:54:00,39.4,28.2,30.29,SSE,164,0.0,11.0,64,0.00,,---,0.00,VWS V13.00,2013-02-24 23:54:00,
2013-02-24 15:59:00,39.4,28.2,30.29,SE,130,3.0,3.0,64,0.00,,---,0.00,VWS V13.00,2013-02-24 23:59:00,
2013-02-24 16:04:00,39.3,28.5,30.29,SE,132,1.0,6.0,65,0.00,,---,0.00,VWS V13.00,2013-02-25 00:04:00,
2013-02-24 16:09:00,39.1,28.3,30.28,ESE,117,5.0,7.0,65,0.00,,---,0.00,VWS V13.00,2013-02-25 00:09:00,
2013-02-24 16:14:00,39.1,28.3,30.28,SE,130,0.0,7.0,65,0.00,,---,0.00,VWS V13.00,2013-02-25 00:14:00,
2013-02-24 16:19:00,39.0,28.2,30.28,ESE,117,0.0,7.0,65,0.00,,---,0.00,VWS V13.00,2013-02-25 00:19:00,
2013-02-24 16:24:00,39.0,28.2,30.27,ESE,117,3.0,7.0,65,0.00,,---,0.00,VWS V13.00,2013-02-25 00:24:00,
2013-02-24 16:29:00,38.9,28.1,30.27,SSW,205,3.0,5.0,65,0.00,,---,0.00,VWS V13.00,2013-02-25 00:29:00,
2013-02-24 16:34:00,38.9,28.1,30.28,SSW,202,6.0,7.0,65,0.00,,---,0.00,VWS V13.00,2013-02-25 00:34:00,
2013-02-24 16:39:00,38.8,28.1,30.27,SSE,161,3.0,8.0,65,0.00,,---,0.00,VWS V13.00,2013-02-25 00:39:00,
2013-02-24 16:44:00,38.7,28.0,30.27,SSE,157,4.0,8.0,65,0.00,,---,0.00,VWS V13.00,2013-02-25 00:44:00,
2013-02-24 16:49:00,38.6,27.9,30.27,SSE,161,1.0,8.0,65,0.00,,---,0.00,VWS V13.00,2013-02-25 00:49:00,
2013-02-24 16:54:00,38.6,28.2,30.27,SSE,161,1.0,8.0,66,0.00,,---,0.00,VWS V13.00,2013-02-25 00:54:00,
2013-02-24 16:59:00,38.5,28.1,30.26,SSE,160,0.0,0.0,66,0.00,,---,0.00,VWS V13.00,2013-02-25 00:59:00,
2013-02-24 17:04:00,38.5,28.1,30.26,SSE,160,1.0,3.0,66,0.00,,---,0.00,VWS V13.00,2013-02-25 01:04:00,
2013-02-24 17:09:00,38.4,28.0,30.26,ESE,123,0.0,4.0,66,0.00,,---,0.00,VWS V13.00,2013-02-25 01:09:00,
2013-02-24 17:14:00,38.3,28.3,30.26,ESE,123,0.0,4.0,67,0.00,,---,0.00,VWS V13.00,2013-02-25 01:14:00,
2013-02-24 17:19:00,38.2,28.2,30.26,ESE,111,1.0,4.0,67,0.00,,---,0.00,VWS V13.00,2013-02-25 01:19:00,
2013-02-24 17:24:00,38.2,28.2,30.26,ESE,111,0.0,4.0,67,0.00,,---,0.00,VWS V13.00,2013-02-25 01:24:00,
2013-02-24 17:29:00,38.1,28.1,30.25,ESE,111,0.0,1.0,67,0.00,,---,0.00,VWS V13.00,2013-02-25 01:29:00,
2013-02-24 17:34:00,38.0,28.0,30.25,ESE,111,0.0,1.0,67,0.00,,---,0.00,VWS V13.00,2013-02-25 01:34:00,
2013-02-24 17:39:00,37.9,28.3,30.25,ESE,111,1.0,2.0,68,0.00,,---,0.00,VWS V13.00,2013-02-25 01:39:00,
2013-02-24 17:44:00,37.8,28.2,30.25,ESE,111,0.0,2.0,68,0.00,,---,0.00,VWS V13.00,2013-02-25 01:44:00,
2013-02-24 17:49:00,37.6,28.0,30.24,ESE,111,0.0,2.0,68,0.00,,---,0.00,VWS V13.00,2013-02-25 01:49:00,
2013-02-24 17:54:00,37.5,28.3,30.24,ESE,111,0.0,2.0,69,0.00,,---,0.00,VWS V13.00,2013-02-25 01:54:00,
2013-02-24 17:59:00,37.4,28.2,30.24,ESE,111,1.0,2.0,69,0.00,,---,0.00,VWS V13.00,2013-02-25 01:59:00,
2013-02-24 18:04:00,37.2,28.0,30.24,ESE,111,1.0,2.0,69,0.00,,---,0.00,VWS V13.00,2013-02-25 02:04:00,
2013-02-24 18:09:00,37.1,28.2,30.25,ESE,111,0.0,2.0,70,0.00,,---,0.00,VWS V13.00,2013-02-25 02:09:00,
2013-02-24 18:14:00,37.0,28.1,30.24,ESE,111,0.0,2.0,70,0.00,,---,0.00,VWS V13.00,2013-02-25 02:14:00,
2013-02-24 18:19:00,36.8,28.0,30.25,ESE,111,0.0,2.0,70,0.00,,---,0.00,VWS V13.00,2013-02-25 02:19:00,
2013-02-24 18:24:00,36.7,28.2,30.25,ESE,111,1.0,2.0,71,0.00,,---,0.00,VWS V13.00,2013-02-25 02:24:00,
2013-02-24 18:29:00,36.6,28.4,30.25,ESE,111,0.0,2.0,72,0.00,,---,0.00,VWS V13.00,2013-02-25 02:29:00,
2013-02-24 18:34:00,36.5,28.4,30.24,ESE,111,0.0,1.0,72,0.00,,---,0.00,VWS V13.00,2013-02-25 02:34:00,
2013-02-24 18:39:00,36.5,28.7,30.24,ESE,111,0.0,2.0,73,0.00,,---,0.00,VWS V13.00,2013-02-25 02:39:00,
2013-02-24 18:44:00,36.4,28.6,30.24,ESE,111,0.0,2.0,73,0.00,,---,0.00,VWS V13.00,2013-02-25 02:44:00,
2013-02-24 18:49:00,36.3,28.5,30.23,ESE,111,1.0,2.0,73,0.00,,---,0.00,VWS V13.00,2013-02-25 02:49:00,
2013-02-24 18:54:00,36.3,28.8,30.23,ESE,111,2.0,2.0,74,0.00,,---,0.00,VWS V13.00,2013-02-25 02:54:00,
2013-02-24 18:59:00,36.2,28.7,30.23,ESE,111,1.0,3.0,74,0.00,,---,0.00,VWS V13.00,2013-02-25 02:59:00,
2013-02-24 19:04:00,36.1,28.6,30.23,ESE,111,0.0,2.0,74,0.00,,---,0.00,VWS V13.00,2013-02-25 03:04:00,
2013-02-24 19:09:00,36.0,28.5,30.23,ESE,111,0.0,2.0,74,0.00,,---,0.00,VWS V13.00,2013-02-25 03:09:00,
2013-02-24 19:14:00,35.9,28.4,30.23,ESE,111,2.0,2.0,74,0.00,,---,0.00,VWS V13.00,2013-02-25 03:14:00,
2013-02-24 19:19:00,35.9,28.8,30.23,ESE,111,0.0,3.0,75,0.00,,---,0.00,VWS V13.00,2013-02-25 03:19:00,
2013-02-24 19:24:00,35.8,28.7,30.23,ESE,111,0.0,3.0,75,0.00,,---,0.00,VWS V13.00,2013-02-25 03:24:00,
2013-02-24 19:29:00,35.7,28.6,30.23,ESE,111,0.0,3.0,75,0.00,,---,0.00,VWS V13.00,2013-02-25 03:29:00,
2013-02-24 19:34:00,35.7,28.6,30.22,ESE,111,0.0,0.0,75,0.00,,---,0.00,VWS V13.00,2013-02-25 03:34:00,
2013-02-24 19:39:00,35.7,28.6,30.22,ESE,111,0.0,0.0,75,0.00,,---,0.00,VWS V13.00,2013-02-25 03:39:00,
2013-02-24 19:44:00,35.7,28.6,30.22,ESE,111,0.0,0.0,75,0.00,,---,0.00,VWS V13.00,2013-02-25 03:44:00,
2013-02-24 19:49:00,35.6,28.5,30.22,ESE,111,0.0,0.0,75,0.00,,---,0.00,VWS V13.00,2013-02-25 03:49:00,
2013-02-24 19:54:00,35.6,28.5,30.22,ESE,111,0.0,0.0,75,0.00,,---,0.00,VWS V13.00,2013-02-25 03:54:00,
2013-02-24 19:59:00,35.5,28.4,30.22,ESE,111,0.0,0.0,75,0.00,,---,0.00,VWS V13.00,2013-02-25 03:59:00,
2013-02-24 20:04:00,35.3,28.2,30.21,ESE,111,0.0,0.0,75,0.00,,---,0.00,VWS V13.00,2013-02-25 04:04:00,
2013-02-24 20:09:00,35.2,28.4,30.20,ESE,111,0.0,0.0,76,0.00,,---,0.00,VWS V13.00,2013-02-25 04:09:00,
2013-02-24 20:14:00,35.1,28.3,30.20,ESE,111,0.0,0.0,76,0.00,,---,0.00,VWS V13.00,2013-02-25 04:14:00,
2013-02-24 20:19:00,35.0,28.2,30.20,ESE,111,0.0,0.0,76,0.00,,---,0.00,VWS V13.00,2013-02-25 04:19:00,
2013-02-24 20:24:00,34.9,28.1,30.19,ESE,111,0.0,1.0,76,0.00,,---,0.00,VWS V13.00,2013-02-25 04:24:00,
2013-02-24 20:29:00,34.9,28.1,30.19,ESE,111,0.0,1.0,76,0.00,,---,0.00,VWS V13.00,2013-02-25 04:29:00,
2013-02-24 20:34:00,34.9,28.1,30.19,ESE,111,0.0,0.0,76,0.00,,---,0.00,VWS V13.00,2013-02-25 04:34:00,
2013-02-24 20:39:00,34.9,28.1,30.19,ESE,111,0.0,2.0,76,0.00,,---,0.00,VWS V13.00,2013-02-25 04:39:00,
2013-02-24 20:44:00,35.0,28.2,30.18,ESE,111,0.0,2.0,76,0.00,,---,0.00,VWS V13.00,2013-02-25 04:44:00,
2013-02-24 20:49:00,35.0,28.2,30.18,ESE,111,0.0,2.0,76,0.00,,---,0.00,VWS V13.00,2013-02-25 04:49:00,
2013-02-24 20:54:00,35.0,27.9,30.18,ESE,111,0.0,2.0,75,0.00,,---,0.00,VWS V13.00,2013-02-25 04:54:00,
2013-02-24 20:59:00,35.0,27.9,30.17,ESE,111,0.0,0.0,75,0.00,,---,0.00,VWS V13.00,2013-02-25 04:59:00,
2013-02-24 21:00:00,35.0,27.9,30.17,ESE,111,0.0,0.0,75,0.00,,---,0.00,VWS V13.00,2013-02-25 05:00:00,
2013-02-24 21:05:00,35.0,27.9,30.17,ESE,111,0.0,0.0,75,0.00,,---,0.00,VWS V13.00,2013-02-25 05:05:00,
2013-02-24 21:10:00,35.0,27.9,30.16,ESE,111,0.0,0.0,75,0.00,,---,0.00,VWS V13.00,2013-02-25 05:10:00,
2013-02-24 21:15:00,35.0,27.9,30.16,ESE,111,0.0,0.0,75,0.00,,---,0.00,VWS V13.00,2013-02-25 05:15:00,
2013-02-24 21:20:00,35.0,28.2,30.16,ESE,111,0.0,0.0,76,0.00,,---,0.00,VWS V13.00,2013-02-25 05:20:00,
2013-02-24 21:25:00,35.0,28.2,30.16,ESE,111,0.0,0.0,76,0.00,,---,0.00,VWS V13.00,2013-02-25 05:25:00,
2013-02-24 21:30:00,34.9,28.1,30.16,ESE,111,0.0,0.0,76,0.00,,---,0.00,VWS V13.00,2013-02-25 05:30:00,
2013-02-24 21:35:00,34.8,28.0,30.16,ESE,111,0.0,0.0,76,0.00,,---,0.00,VWS V13.00,2013-02-25 05:35:00,
2013-02-24 21:40:00,34.8,28.0,30.16,ESE,111,0.0,0.0,76,0.00,,---,0.00,VWS V13.00,2013-02-25 05:40:00,
2013-02-24 21:45:00,34.7,27.9,30.15,ESE,111,0.0,0.0,76,0.00,,---,0.00,VWS V13.00,2013-02-25 05:45:00,
2013-02-24 21:50:00,34.6,28.1,30.15,ESE,111,0.0,0.0,77,0.00,,---,0.00,VWS V13.00,2013-02-25 05:50:00,
2013-02-24 21:55:00,34.5,28.0,30.15,ESE,111,0.0,0.0,77,0.00,,---,0.00,VWS V13.00,2013-02-25 05:55:00,
2013-02-24 22:00:00,34.4,28.0,30.15,ESE,111,0.0,0.0,77,0.00,,---,0.00,VWS V13.00,2013-02-25 06:00:00,
2013-02-24 22:05:00,34.4,28.0,30.15,ESE,111,0.0,0.0,77,0.00,,---,0.00,VWS V13.00,2013-02-25 06:05:00,
2013-02-24 22:10:00,34.4,28.0,30.15,ESE,111,0.0,0.0,77,0.00,,---,0.00,VWS V13.00,2013-02-25 06:10:00,
2013-02-24 22:15:00,34.4,28.3,30.15,ESE,111,0.0,0.0,78,0.00,,---,0.00,VWS V13.00,2013-02-25 06:15:00,
2013-02-24 22:20:00,34.3,28.2,30.14,ESE,111,0.0,0.0,78,0.00,,---,0.00,VWS V13.00,2013-02-25 06:20:00,
2013-02-24 22:25:00,34.2,28.1,30.14,ESE,111,0.0,0.0,78,0.00,,---,0.00,VWS V13.00,2013-02-25 06:25:00,
2013-02-24 22:30:00,34.1,28.0,30.14,ESE,111,0.0,0.0,78,0.00,,---,0.00,VWS V13.00,2013-02-25 06:30:00,
2013-02-24 22:35:00,34.1,28.0,30.13,ESE,111,0.0,0.0,78,0.00,,---,0.00,VWS V13.00,2013-02-25 06:35:00,
2013-02-24 22:40:00,34.0,27.9,30.13,ESE,111,0.0,0.0,78,0.00,,---,0.00,VWS V13.00,2013-02-25 06:40:00,
2013-02-24 22:45:00,33.9,27.8,30.13,ESE,111,0.0,0.0,78,0.00,,---,0.00,VWS V13.00,2013-02-25 06:45:00,
2013-02-24 22:50:00,33.9,27.8,30.12,ESE,111,0.0,1.0,78,0.00,,---,0.00,VWS V13.00,2013-02-25 06:50:00,
2013-02-24 22:55:00,33.9,27.8,30.12,ESE,111,0.0,1.0,78,0.00,,---,0.00,VWS V13.00,2013-02-25 06:55:00,
2013-02-24 23:00:00,33.9,27.8,30.11,ESE,111,0.0,0.0,78,0.00,,---,0.00,VWS V13.00,2013-02-25 07:00:00,
2013-02-24 23:05:00,33.9,27.8,30.10,ESE,111,0.0,1.0,78,0.00,,---,0.00,VWS V13.00,2013-02-25 07:05:00,
2013-02-24 23:10:00,33.9,28.1,30.10,ESE,111,0.0,1.0,79,0.00,,---,0.00,VWS V13.00,2013-02-25 07:10:00,
2013-02-24 23:15:00,33.9,28.1,30.10,ESE,111,0.0,1.0,79,0.00,,---,0.00,VWS V13.00,2013-02-25 07:15:00,
2013-02-24 23:20:00,33.9,28.1,30.10,ESE,111,0.0,1.0,79,0.00,,---,0.00,VWS V13.00,2013-02-25 07:20:00,
2013-02-24 23:25:00,33.8,28.3,30.09,ESE,111,0.0,1.0,80,0.00,,---,0.00,VWS V13.00,2013-02-25 07:25:00,
2013-02-24 23:30:00,33.8,28.3,30.09,ESE,111,0.0,0.0,80,0.00,,---,0.00,VWS V13.00,2013-02-25 07:30:00,
2013-02-24 23:35:00,33.7,28.2,30.09,ESE,111,1.0,2.0,80,0.00,,---,0.00,VWS V13.00,2013-02-25 07:35:00,
2013-02-24 23:40:00,33.6,28.1,30.09,ESE,111,0.0,2.0,80,0.00,,---,0.00,VWS V13.00,2013-02-25 07:40:00,
2013-02-24 23:45:00,33.5,28.3,30.09,ESE,111,1.0,2.0,81,0.00,,---,0.00,VWS V13.00,2013-02-25 07:45:00,
2013-02-24 23:50:00,33.4,28.2,30.09,ESE,111,0.0,2.0,81,0.00,,---,0.00,VWS V13.00,2013-02-25 07:50:00,
2013-02-24 23:55:00,33.3,28.1,30.09,ESE,111,0.0,2.0,81,0.00,,---,0.00,VWS V13.00,2013-02-25 07:55:00,